Regional Weather Roundup
Issued by NWS

Home | Current Version | Previous Version | Graphics & Text | Print | Product List | Glossary On
Versions: 1 2 3 4 5 6 7 8 9 10 11 12 13 14 15 16 17 18 19 20 21 22 23 24 25 26 27 28 29 30 31 32 33 34 35 36 37 38 39 40 41 42 43 44 45 46 47 48 49 50
000
ASUS43 KLSX 191407
RWRMO

WEATHER SUMMARY FOR MISSOURI
NATIONAL WEATHER SERVICE SPRINGFIELD MO
900 AM CDT FRI SEP 19 2014

NOTE: "FAIR" INDICATES FEW OR NO CLOUDS BELOW 12,000 FEET WITH NO
       SIGNIFICANT WEATHER AND/OR OBSTRUCTIONS TO VISIBILITY.
       CURRENT SKY AND/OR WEATHER CONDITIONS ARE NOT AVAILABLE FOR
       CHILLICOTHE AND FARMINGTON.

MOZ001>031-035>038-043-044-053-054-191500-
...NORTHERN AND WESTERN MISSOURI...

CITY           SKY/WX    TMP DP  RH WIND       PRES   REMARKS
KANSAS CTY INT CLOUDY    63  61  93 S10       30.03S
KANSAS C DTWN  CLOUDY    65  62  90 S7        30.03S FOG
LEE`S SUMMIT   CLOUDY    62  60  93 SE5       30.05S FOG
ST JOSEPH      CLOUDY    63  62  97 S10       30.02S FOG
CHILLICOTHE      N/A     61  60  97 SE6       30.07F

$$
MOZ066>068-077>081-088>096-101>105-191500-
...SOUTHWEST MISSOURI...

CITY           SKY/WX    TMP DP  RH WIND       PRES   REMARKS
SPRINGFIELD    SUNNY     65  61  87 SE10      30.05S
JOPLIN         SUNNY     67  62  84 SE7       30.03S

$$
MOZ032>034-039>042-045>050-055>058-069>072-191500-
...CENTRAL MISSOURI...

CITY           SKY/WX    TMP DP  RH WIND       PRES   REMARKS
COLUMBIA       SUNNY     62  57  83 SE6       30.09R
JEFFERSON CITY SUNNY     60  57  89 SE3       30.09R
ROLLA          SUNNY     61  55  81 SE10      30.08R
SEDALIA        MOSUNNY   63  61  93 SE7       30.07R FOG
WHITEMAN AFB   CLOUDY    62  61  96 SE7       30.05S FOG
OSAGE BEACH    SUNNY     59  55  88 SE5       30.07F

$$
MOZ051-052-059>065-191500-
...EAST CENTRAL MISSOURI...

CITY           SKY/WX    TMP DP  RH WIND       PRES   REMARKS
ST LOUIS INTL  MOSUNNY   62  54  74 E7        30.11S
SPIRIT OF STL  MOSUNNY   62  56  80 CALM      30.10R
ST CHARLES     SUNNY     61  55  81 E7        30.11R

$$
MOZ072>076-082>087-097>100-106>115-191500-
...SOUTH CENTRAL AND SOUTHEAST MISSOURI...

CITY           SKY/WX    TMP DP  RH WIND       PRES   REMARKS
CAPE GIRARDEAU SUNNY     64  57  78 E5        30.07S
FARMINGTON     SUNNY     63  55  77 CALM      30.12R
POPLAR BLUFF   SUNNY     64  55  72 NE7       30.06S
WEST PLAINS    SUNNY     61  56  83 E3        30.09S

$$


USA.gov is the U.S. government's official web portal to all federal, state and local government web resources and services.